owner,sensor,date,latitude,longitude,vertical_datum,mass_concentration_of_oxygen_in_sea_water,qcFlag 
SCCF RECON,ioos:station:SCCF:56:1,2017-03-01T00:00:00Z,26.4645,-82.1044,1.36,7.21,1111122 
SCCF RECON,ioos:station:SCCF:56:1,2017-03-01T01:00:00Z,26.4645,-82.1044,1.27,6.73,1111122 
SCCF RECON,ioos:station:SCCF:56:1,2017-03-01T02:00:00Z,26.4645,-82.1044,1.22,6.63,1111122 
SCCF RECON,ioos:station:SCCF:56:1,2017-03-01T03:00:00Z,26.4645,-82.1044,1.29,6.63,1111122 
SCCF RECON,ioos:station:SCCF:56:1,2017-03-01T04:00:00Z,26.4645,-82.1044,1.47,6.5,1111122 
SCCF RECON,ioos:station:SCCF:56:1,2017-03-01T05:00:00Z,26.4645,-82.1044,1.64,6.62,1111122 
SCCF RECON,ioos:station:SCCF:56:1,2017-03-01T06:00:00Z,26.4645,-82.1044,1.75,6.78,1111122 
SCCF RECON,ioos:station:SCCF:56:1,2017-03-01T07:00:00Z,26.4645,-82.1044,1.83,6.7,1111122 
SCCF RECON,ioos:station:SCCF:56:1,2017-03-01T08:00:00Z,26.4645,-82.1044,1.858,6.31,1111122 
SCCF RECON,ioos:station:SCCF:56:1,2017-03-01T09:00:00Z,26.4645,-82.1044,1.778,6.2,1111122 
SCCF RECON,ioos:station:SCCF:56:1,2017-03-01T10:00:00Z,26.4645,-82.1044,1.641,5.68,1111122 
SCCF RECON,ioos:station:SCCF:56:1,2017-03-01T11:00:00Z,26.4645,-82.1044,1.53,5.23,1111122 
SCCF RECON,ioos:station:SCCF:56:1,2017-03-01T12:00:00Z,26.4645,-82.1044,1.41,4.63,1111122 
SCCF RECON,ioos:station:SCCF:56:1,2017-03-01T13:00:00Z,26.4645,-82.1044,1.3,4.17,1111122 
SCCF RECON,ioos:station:SCCF:56:1,2017-03-01T14:00:00Z,26.4645,-82.1044,1.21,3.89,1111122 
SCCF RECON,ioos:station:SCCF:56:1,2017-03-01T15:00:00Z,26.4645,-82.1044,1.22,3.7,1111122 
SCCF RECON,ioos:station:SCCF:56:1,2017-03-01T16:00:00Z,26.4645,-82.1044,1.38,6.89,1111122 
SCCF RECON,ioos:station:SCCF:56:1,2017-03-01T17:00:00Z,26.4645,-82.1044,1.548,8.25,1111122 
SCCF RECON,ioos:station:SCCF:56:1,2017-03-01T18:00:00Z,26.4645,-82.1044,1.67,8.6,1111122 
SCCF RECON,ioos:station:SCCF:56:1,2017-03-01T19:00:00Z,26.4645,-82.1044,1.759,8.6,1111122 
SCCF RECON,ioos:station:SCCF:56:1,2017-03-01T20:00:00Z,26.4645,-82.1044,1.785,8.34,1111122 
SCCF RECON,ioos:station:SCCF:56:1,2017-03-01T21:00:00Z,26.4645,-82.1044,1.74,7.98,1111122 
SCCF RECON,ioos:station:SCCF:56:1,2017-03-01T22:00:00Z,26.4645,-82.1044,1.63,8.09,1111122 
SCCF RECON,ioos:station:SCCF:56:1,2017-03-01T23:00:00Z,26.4645,-82.1044,1.5,7.58,1111122 
SCCF RECON,ioos:station:SCCF:56:1,2017-03-02T00:00:00Z,26.4645,-82.1044,1.39,7.11,1111122 
SCCF RECON,ioos:station:SCCF:56:1,2017-03-02T01:00:00Z,26.4645,-82.1044,1.29,6.59,1111122 
SCCF RECON,ioos:station:SCCF:56:1,2017-03-02T02:00:00Z,26.4645,-82.1044,1.19,6.29,1111122 
SCCF RECON,ioos:station:SCCF:56:1,2017-03-02T03:00:00Z,26.4645,-82.1044,1.14,6.01,1111122 
SCCF RECON,ioos:station:SCCF:56:1,2017-03-02T04:00:00Z,26.4645,-82.1044,1.241,5.91,1111122 
SCCF RECON,ioos:station:SCCF:56:1,2017-03-02T05:00:00Z,26.4645,-82.1044,1.44,5.39,1111122 
SCCF RECON,ioos:station:SCCF:56:1,2017-03-02T06:00:00Z,26.4645,-82.1044,1.59,6.49,1111122 
SCCF RECON,ioos:station:SCCF:56:1,2017-03-02T07:00:00Z,26.4645,-82.1044,1.68,6.49,1111122 
SCCF RECON,ioos:station:SCCF:56:1,2017-03-02T08:00:00Z,26.4645,-82.1044,1.74,6.34,1111122 
SCCF RECON,ioos:station:SCCF:56:1,2017-03-02T09:00:00Z,26.4645,-82.1044,1.757,5.99,1111122 
SCCF RECON,ioos:station:SCCF:56:1,2017-03-02T10:00:00Z,26.4645,-82.1044,1.687,5.78,1111122 
SCCF RECON,ioos:station:SCCF:56:1,2017-03-02T11:00:00Z,26.4645,-82.1044,1.58,5.72,1111122 
SCCF RECON,ioos:station:SCCF:56:1,2017-03-02T12:00:00Z,26.4645,-82.1044,1.478,5.14,1111122 
SCCF RECON,ioos:station:SCCF:56:1,2017-03-02T13:00:00Z,26.4645,-82.1044,1.38,4.51,1111122 
SCCF RECON,ioos:station:SCCF:56:1,2017-03-02T14:00:00Z,26.4645,-82.1044,1.303,4.06,1111122 
SCCF RECON,ioos:station:SCCF:56:1,2017-03-02T15:00:00Z,26.4645,-82.1044,1.26,4.13,1111122 
SCCF RECON,ioos:station:SCCF:56:1,2017-03-02T16:00:00Z,26.4645,-82.1044,1.36,4.63,1111122 
SCCF RECON,ioos:station:SCCF:56:1,2017-03-02T17:00:00Z,26.4645,-82.1044,1.518,7.49,1111122 
SCCF RECON,ioos:station:SCCF:56:1,2017-03-02T18:00:00Z,26.4645,-82.1044,1.651,8.37,1111122 
SCCF RECON,ioos:station:SCCF:56:1,2017-03-02T19:00:00Z,26.4645,-82.1044,1.758,8.22,1111122 
SCCF RECON,ioos:station:SCCF:56:1,2017-03-02T20:00:00Z,26.4645,-82.1044,1.821,8.29,1111122 
SCCF RECON,ioos:station:SCCF:56:1,2017-03-02T21:00:00Z,26.4645,-82.1044,1.814,8.0,1111122 
SCCF RECON,ioos:station:SCCF:56:1,2017-03-02T22:00:00Z,26.4645,-82.1044,1.76,8.14,1111122 
SCCF RECON,ioos:station:SCCF:56:1,2017-03-02T23:00:00Z,26.4645,-82.1044,1.64,7.67,1111122 
SCCF RECON,ioos:station:SCCF:56:1,2017-03-03T00:00:00Z,26.4645,-82.1044,1.52,7.11,1111122 
SCCF RECON,ioos:station:SCCF:56:1,2017-03-03T01:00:00Z,26.4645,-82.1044,1.42,6.4,1111122 
SCCF RECON,ioos:station:SCCF:56:1,2017-03-03T02:00:00Z,26.4645,-82.1044,1.315,5.83,1111122 
SCCF RECON,ioos:station:SCCF:56:1,2017-03-03T03:00:00Z,26.4645,-82.1044,1.21,5.4,1111122 
SCCF RECON,ioos:station:SCCF:56:1,2017-03-03T04:00:00Z,26.4645,-82.1044,1.131,5.15,1111122 
SCCF RECON,ioos:station:SCCF:56:1,2017-03-03T05:00:00Z,26.4645,-82.1044,1.16,5.09,1111122 
SCCF RECON,ioos:station:SCCF:56:1,2017-03-03T06:00:00Z,26.4645,-82.1044,1.32,5.03,1111122 
SCCF RECON,ioos:station:SCCF:56:1,2017-03-03T07:00:00Z,26.4645,-82.1044,1.47,4.95,1111122 
SCCF RECON,ioos:station:SCCF:56:1,2017-03-03T08:00:00Z,26.4645,-82.1044,1.557,5.4,1111122 
SCCF RECON,ioos:station:SCCF:56:1,2017-03-03T09:00:00Z,26.4645,-82.1044,1.616,5.53,1111122 
SCCF RECON,ioos:station:SCCF:56:1,2017-03-03T10:00:00Z,26.4645,-82.1044,1.581,5.78,1111122 
SCCF RECON,ioos:station:SCCF:56:1,2017-03-03T11:00:00Z,26.4645,-82.1044,1.504,5.39,1111122 
SCCF RECON,ioos:station:SCCF:56:1,2017-03-03T12:00:00Z,26.4645,-82.1044,1.42,4.76,1111122 
SCCF RECON,ioos:station:SCCF:56:1,2017-03-03T13:00:00Z,26.4645,-82.1044,1.35,4.78,1111122 
SCCF RECON,ioos:station:SCCF:56:1,2017-03-03T14:00:00Z,26.4645,-82.1044,1.299,4.48,1111122 
SCCF RECON,ioos:station:SCCF:56:1,2017-03-03T15:00:00Z,26.4645,-82.1044,1.226,4.28,1111122 
SCCF RECON,ioos:station:SCCF:56:1,2017-03-03T16:00:00Z,26.4645,-82.1044,1.182,4.51,1111122 
SCCF RECON,ioos:station:SCCF:56:1,2017-03-03T17:00:00Z,26.4645,-82.1044,1.226,7.0,1111122 
SCCF RECON,ioos:station:SCCF:56:1,2017-03-03T18:00:00Z,26.4645,-82.1044,1.349,10.43,1111122 
SCCF RECON,ioos:station:SCCF:56:1,2017-03-03T19:00:00Z,26.4645,-82.1044,1.469,10.08,1111122 
SCCF RECON,ioos:station:SCCF:56:1,2017-03-03T20:00:00Z,26.4645,-82.1044,1.605,8.87,1111122 
SCCF RECON,ioos:station:SCCF:56:1,2017-03-03T21:00:00Z,26.4645,-82.1044,1.665,8.66,1111122 
SCCF RECON,ioos:station:SCCF:56:1,2017-03-03T22:00:00Z,26.4645,-82.1044,1.711,8.49,1111122 
SCCF RECON,ioos:station:SCCF:56:1,2017-03-03T23:00:00Z,26.4645,-82.1044,1.689,7.92,1111122 
SCCF RECON,ioos:station:SCCF:56:1,2017-03-04T00:00:00Z,26.4645,-82.1044,1.597,7.96,1111122 
SCCF RECON,ioos:station:SCCF:56:1,2017-03-04T01:00:00Z,26.4645,-82.1044,1.477,7.46,1111122 
SCCF RECON,ioos:station:SCCF:56:1,2017-03-04T02:00:00Z,26.4645,-82.1044,1.35,6.95,1111122 
SCCF RECON,ioos:station:SCCF:56:1,2017-03-04T03:00:00Z,26.4645,-82.1044,1.218,6.59,1111122 
SCCF RECON,ioos:station:SCCF:56:1,2017-03-04T04:00:00Z,26.4645,-82.1044,1.108,6.21,1111122 
SCCF RECON,ioos:station:SCCF:56:1,2017-03-04T05:00:00Z,26.4645,-82.1044,1.029,5.94,1111122 
SCCF RECON,ioos:station:SCCF:56:1,2017-03-04T06:00:00Z,26.4645,-82.1044,0.998,5.39,1111122 
SCCF RECON,ioos:station:SCCF:56:1,2017-03-04T07:00:00Z,26.4645,-82.1044,1.076,5.95,1111122 
SCCF RECON,ioos:station:SCCF:56:1,2017-03-04T08:00:00Z,26.4645,-82.1044,1.18,7.15,1111122 
SCCF RECON,ioos:station:SCCF:56:1,2017-03-04T09:00:00Z,26.4645,-82.1044,1.29,7.42,1111122 
SCCF RECON,ioos:station:SCCF:56:1,2017-03-04T10:00:00Z,26.4645,-82.1044,1.366,6.79,1111122 
SCCF RECON,ioos:station:SCCF:56:1,2017-03-04T11:00:00Z,26.4645,-82.1044,1.391,6.79,1111122 
SCCF RECON,ioos:station:SCCF:56:1,2017-03-04T12:00:00Z,26.4645,-82.1044,1.385,7.02,1111122 
SCCF RECON,ioos:station:SCCF:56:1,2017-03-04T13:00:00Z,26.4645,-82.1044,1.32,7.01,1111122 
SCCF RECON,ioos:station:SCCF:56:1,2017-03-04T14:00:00Z,26.4645,-82.1044,1.247,6.72,1111122 
SCCF RECON,ioos:station:SCCF:56:1,2017-03-04T15:00:00Z,26.4645,-82.1044,1.199,6.56,1111122 
SCCF RECON,ioos:station:SCCF:56:1,2017-03-04T16:00:00Z,26.4645,-82.1044,1.17,6.4,1111122 
SCCF RECON,ioos:station:SCCF:56:1,2017-03-04T17:00:00Z,26.4645,-82.1044,1.181,7.3,1111122 
SCCF RECON,ioos:station:SCCF:56:1,2017-03-04T18:00:00Z,26.4645,-82.1044,1.27,9.39,1111122 
SCCF RECON,ioos:station:SCCF:56:1,2017-03-04T19:00:00Z,26.4645,-82.1044,1.37,10.42,1111122 
SCCF RECON,ioos:station:SCCF:56:1,2017-03-04T20:00:00Z,26.4645,-82.1044,1.48,9.41,1111122 
SCCF RECON,ioos:station:SCCF:56:1,2017-03-04T21:00:00Z,26.4645,-82.1044,1.57,8.94,1111122 
SCCF RECON,ioos:station:SCCF:56:1,2017-03-04T22:00:00Z,26.4645,-82.1044,1.629,8.72,1111122 
SCCF RECON,ioos:station:SCCF:56:1,2017-03-04T23:00:00Z,26.4645,-82.1044,1.631,8.34,1111122 
SCCF RECON,ioos:station:SCCF:56:1,2017-03-05T00:00:00Z,26.4645,-82.1044,1.571,8.17,1111122 
SCCF RECON,ioos:station:SCCF:56:1,2017-03-05T01:00:00Z,26.4645,-82.1044,1.47,7.92,1111122 
SCCF RECON,ioos:station:SCCF:56:1,2017-03-05T02:00:00Z,26.4645,-82.1044,1.37,7.89,1111122 
SCCF RECON,ioos:station:SCCF:56:1,2017-03-05T03:00:00Z,26.4645,-82.1044,1.26,7.48,1111122 
SCCF RECON,ioos:station:SCCF:56:1,2017-03-05T04:00:00Z,26.4645,-82.1044,1.154,6.98,1111122 
SCCF RECON,ioos:station:SCCF:56:1,2017-03-05T05:00:00Z,26.4645,-82.1044,1.05,6.48,1111122 
SCCF RECON,ioos:station:SCCF:56:1,2017-03-05T06:00:00Z,26.4645,-82.1044,1.0,6.27,1111122 
SCCF RECON,ioos:station:SCCF:56:1,2017-03-05T07:00:00Z,26.4645,-82.1044,1.004,6.04,1111122 
SCCF RECON,ioos:station:SCCF:56:1,2017-03-05T08:00:00Z,26.4645,-82.1044,1.11,7.43,1111122 
SCCF RECON,ioos:station:SCCF:56:1,2017-03-05T09:00:00Z,26.4645,-82.1044,1.256,7.55,1111122 
SCCF RECON,ioos:station:SCCF:56:1,2017-03-05T10:00:00Z,26.4645,-82.1044,1.37,7.42,1111122 
SCCF RECON,ioos:station:SCCF:56:1,2017-03-05T11:00:00Z,26.4645,-82.1044,1.468,7.42,1111122 
SCCF RECON,ioos:station:SCCF:56:1,2017-03-05T12:00:00Z,26.4645,-82.1044,1.54,7.26,1111122 
SCCF RECON,ioos:station:SCCF:56:1,2017-03-05T13:00:00Z,26.4645,-82.1044,1.548,7.13,1111122 
SCCF RECON,ioos:station:SCCF:56:1,2017-03-05T14:00:00Z,26.4645,-82.1044,1.515,7.08,1111122 
SCCF RECON,ioos:station:SCCF:56:1,2017-03-05T15:00:00Z,26.4645,-82.1044,1.462,7.12,1111122 
SCCF RECON,ioos:station:SCCF:56:1,2017-03-05T16:00:00Z,26.4645,-82.1044,1.399,7.52,1111122 
SCCF RECON,ioos:station:SCCF:56:1,2017-03-05T17:00:00Z,26.4645,-82.1044,1.381,7.36,1111122 
SCCF RECON,ioos:station:SCCF:56:1,2017-03-05T18:00:00Z,26.4645,-82.1044,1.452,9.07,1111122 
SCCF RECON,ioos:station:SCCF:56:1,2017-03-05T19:00:00Z,26.4645,-82.1044,1.518,9.5,1111122 
SCCF RECON,ioos:station:SCCF:56:1,2017-03-05T20:00:00Z,26.4645,-82.1044,1.58,9.22,1111122 
SCCF RECON,ioos:station:SCCF:56:1,2017-03-05T21:00:00Z,26.4645,-82.1044,1.624,9.07,1111122 
SCCF RECON,ioos:station:SCCF:56:1,2017-03-05T22:00:00Z,26.4645,-82.1044,1.662,9.05,1111122 
SCCF RECON,ioos:station:SCCF:56:1,2017-03-05T23:00:00Z,26.4645,-82.1044,1.68,8.82,1111122 
SCCF RECON,ioos:station:SCCF:56:1,2017-03-06T00:00:00Z,26.4645,-82.1044,1.693,8.6,1111122 
SCCF RECON,ioos:station:SCCF:56:1,2017-03-06T01:00:00Z,26.4645,-82.1044,1.65,8.2,1111122 
SCCF RECON,ioos:station:SCCF:56:1,2017-03-06T02:00:00Z,26.4645,-82.1044,1.579,7.95,1111122 
SCCF RECON,ioos:station:SCCF:56:1,2017-03-06T03:00:00Z,26.4645,-82.1044,1.48,7.88,1111122 
SCCF RECON,ioos:station:SCCF:56:1,2017-03-06T04:00:00Z,26.4645,-82.1044,1.359,7.52,1111122 
SCCF RECON,ioos:station:SCCF:56:1,2017-03-06T05:00:00Z,26.4645,-82.1044,1.258,6.94,1111122 
SCCF RECON,ioos:station:SCCF:56:1,2017-03-06T06:00:00Z,26.4645,-82.1044,1.158,6.73,1111122 
SCCF RECON,ioos:station:SCCF:56:1,2017-03-06T07:00:00Z,26.4645,-82.1044,1.07,6.34,1111122 
SCCF RECON,ioos:station:SCCF:56:1,2017-03-06T08:00:00Z,26.4645,-82.1044,1.062,6.14,1111122 
SCCF RECON,ioos:station:SCCF:56:1,2017-03-06T09:00:00Z,26.4645,-82.1044,1.181,7.87,1111122 
SCCF RECON,ioos:station:SCCF:56:1,2017-03-06T10:00:00Z,26.4645,-82.1044,1.3,8.06,1111122 
SCCF RECON,ioos:station:SCCF:56:1,2017-03-06T11:00:00Z,26.4645,-82.1044,1.4,7.96,1111122 
SCCF RECON,ioos:station:SCCF:56:1,2017-03-06T12:00:00Z,26.4645,-82.1044,1.462,7.67,1111122 
SCCF RECON,ioos:station:SCCF:56:1,2017-03-06T13:00:00Z,26.4645,-82.1044,1.539,8.04,1111122 
SCCF RECON,ioos:station:SCCF:56:1,2017-03-06T14:00:00Z,26.4645,-82.1044,1.55,8.3,1111122 
SCCF RECON,ioos:station:SCCF:56:1,2017-03-06T15:00:00Z,26.4645,-82.1044,1.563,8.45,1111122 
SCCF RECON,ioos:station:SCCF:56:1,2017-03-06T16:00:00Z,26.4645,-82.1044,1.532,8.81,1111122 
SCCF RECON,ioos:station:SCCF:56:1,2017-03-06T17:00:00Z,26.4645,-82.1044,1.51,8.16,1111122 
SCCF RECON,ioos:station:SCCF:56:1,2017-03-06T18:00:00Z,26.4645,-82.1044,1.5,8.45,1111122 
SCCF RECON,ioos:station:SCCF:56:1,2017-03-06T19:00:00Z,26.4645,-82.1044,1.538,10.03,1111122 
SCCF RECON,ioos:station:SCCF:56:1,2017-03-06T20:00:00Z,26.4645,-82.1044,1.581,9.87,1111122 
SCCF RECON,ioos:station:SCCF:56:1,2017-03-06T21:00:00Z,26.4645,-82.1044,1.678,10.97,1111122 
SCCF RECON,ioos:station:SCCF:56:1,2017-03-06T22:00:00Z,26.4645,-82.1044,1.75,9.68,1111122 
SCCF RECON,ioos:station:SCCF:56:1,2017-03-06T23:00:00Z,26.4645,-82.1044,1.801,9.28,1111122 
SCCF RECON,ioos:station:SCCF:56:1,2017-03-07T00:00:00Z,26.4645,-82.1044,1.838,8.86,1111122 
SCCF RECON,ioos:station:SCCF:56:1,2017-03-07T01:00:00Z,26.4645,-82.1044,1.847,8.39,1111122 
SCCF RECON,ioos:station:SCCF:56:1,2017-03-07T02:00:00Z,26.4645,-82.1044,1.81,8.28,1111122 
SCCF RECON,ioos:station:SCCF:56:1,2017-03-07T03:00:00Z,26.4645,-82.1044,1.69,8.23,1111122 
SCCF RECON,ioos:station:SCCF:56:1,2017-03-07T04:00:00Z,26.4645,-82.1044,1.563,8.12,1111122 
SCCF RECON,ioos:station:SCCF:56:1,2017-03-07T05:00:00Z,26.4645,-82.1044,1.44,7.56,1111122 
SCCF RECON,ioos:station:SCCF:56:1,2017-03-07T06:00:00Z,26.4645,-82.1044,1.319,7.13,1111122 
SCCF RECON,ioos:station:SCCF:56:1,2017-03-07T07:00:00Z,26.4645,-82.1044,1.209,6.73,1111122 
SCCF RECON,ioos:station:SCCF:56:1,2017-03-07T08:00:00Z,26.4645,-82.1044,1.135,6.23,1111122 
SCCF RECON,ioos:station:SCCF:56:1,2017-03-07T09:00:00Z,26.4645,-82.1044,1.12,5.99,1111122 
SCCF RECON,ioos:station:SCCF:56:1,2017-03-07T10:00:00Z,26.4645,-82.1044,1.24,7.91,1111122 
SCCF RECON,ioos:station:SCCF:56:1,2017-03-07T11:00:00Z,26.4645,-82.1044,1.37,7.76,1111122 
SCCF RECON,ioos:station:SCCF:56:1,2017-03-07T12:00:00Z,26.4645,-82.1044,1.47,7.8,1111122 
SCCF RECON,ioos:station:SCCF:56:1,2017-03-07T13:00:00Z,26.4645,-82.1044,1.563,7.36,1111122 
SCCF RECON,ioos:station:SCCF:56:1,2017-03-07T14:00:00Z,26.4645,-82.1044,1.649,8.43,1111122 
SCCF RECON,ioos:station:SCCF:56:1,2017-03-07T15:00:00Z,26.4645,-82.1044,1.668,8.69,1111122 
SCCF RECON,ioos:station:SCCF:56:1,2017-03-07T16:00:00Z,26.4645,-82.1044,1.638,8.26,1111122 
SCCF RECON,ioos:station:SCCF:56:1,2017-03-07T17:00:00Z,26.4645,-82.1044,1.605,8.5,1111122 
SCCF RECON,ioos:station:SCCF:56:1,2017-03-07T18:00:00Z,26.4645,-82.1044,1.565,8.41,1111122 
SCCF RECON,ioos:station:SCCF:56:1,2017-03-07T19:00:00Z,26.4645,-82.1044,1.564,8.18,1111122 
SCCF RECON,ioos:station:SCCF:56:1,2017-03-07T20:00:00Z,26.4645,-82.1044,1.61,9.77,1111122 
SCCF RECON,ioos:station:SCCF:56:1,2017-03-07T21:00:00Z,26.4645,-82.1044,1.649,10.2,1111122 
SCCF RECON,ioos:station:SCCF:56:1,2017-03-07T22:00:00Z,26.4645,-82.1044,1.675,10.16,1111122 
SCCF RECON,ioos:station:SCCF:56:1,2017-03-07T23:00:00Z,26.4645,-82.1044,1.709,10.03,1111122 
SCCF RECON,ioos:station:SCCF:56:1,2017-03-08T00:00:00Z,26.4645,-82.1044,1.77,9.78,1111122 
SCCF RECON,ioos:station:SCCF:56:1,2017-03-08T01:00:00Z,26.4645,-82.1044,1.83,9.57,1111122 
SCCF RECON,ioos:station:SCCF:56:1,2017-03-08T02:00:00Z,26.4645,-82.1044,1.867,8.73,1111122 
SCCF RECON,ioos:station:SCCF:56:1,2017-03-08T03:00:00Z,26.4645,-82.1044,1.878,8.21,1111122 
SCCF RECON,ioos:station:SCCF:56:1,2017-03-08T04:00:00Z,26.4645,-82.1044,1.789,8.58,1111122 
SCCF RECON,ioos:station:SCCF:56:1,2017-03-08T05:00:00Z,26.4645,-82.1044,1.659,8.34,1111122 
SCCF RECON,ioos:station:SCCF:56:1,2017-03-08T06:00:00Z,26.4645,-82.1044,1.515,7.19,1111122 
SCCF RECON,ioos:station:SCCF:56:1,2017-03-08T07:00:00Z,26.4645,-82.1044,1.364,6.51,1111122 
SCCF RECON,ioos:station:SCCF:56:1,2017-03-08T08:00:00Z,26.4645,-82.1044,1.24,6.04,1111122 
SCCF RECON,ioos:station:SCCF:56:1,2017-03-08T09:00:00Z,26.4645,-82.1044,1.134,5.43,1111122 
SCCF RECON,ioos:station:SCCF:56:1,2017-03-08T10:00:00Z,26.4645,-82.1044,1.096,4.86,1111122 
SCCF RECON,ioos:station:SCCF:56:1,2017-03-08T11:00:00Z,26.4645,-82.1044,1.18,5.06,1111122 
SCCF RECON,ioos:station:SCCF:56:1,2017-03-08T12:00:00Z,26.4645,-82.1044,1.33,5.13,1111122 
SCCF RECON,ioos:station:SCCF:56:1,2017-03-08T13:00:00Z,26.4645,-82.1044,1.468,4.5,1111122 
SCCF RECON,ioos:station:SCCF:56:1,2017-03-08T14:00:00Z,26.4645,-82.1044,1.559,7.29,1111122 
SCCF RECON,ioos:station:SCCF:56:1,2017-03-08T15:00:00Z,26.4645,-82.1044,1.61,8.42,1111122 
SCCF RECON,ioos:station:SCCF:56:1,2017-03-08T16:00:00Z,26.4645,-82.1044,1.607,8.38,1111122 
SCCF RECON,ioos:station:SCCF:56:1,2017-03-08T17:00:00Z,26.4645,-82.1044,1.598,8.42,1111122 
SCCF RECON,ioos:station:SCCF:56:1,2017-03-08T18:00:00Z,26.4645,-82.1044,1.578,8.69,1111122 
SCCF RECON,ioos:station:SCCF:56:1,2017-03-08T19:00:00Z,26.4645,-82.1044,1.536,8.52,1111122 
SCCF RECON,ioos:station:SCCF:56:1,2017-03-08T20:00:00Z,26.4645,-82.1044,1.489,8.6,1111122 
SCCF RECON,ioos:station:SCCF:56:1,2017-03-08T21:00:00Z,26.4645,-82.1044,1.47,8.47,1111122 
SCCF RECON,ioos:station:SCCF:56:1,2017-03-08T22:00:00Z,26.4645,-82.1044,1.478,8.14,1111122 
SCCF RECON,ioos:station:SCCF:56:1,2017-03-08T23:00:00Z,26.4645,-82.1044,1.538,10.6,1111122 
SCCF RECON,ioos:station:SCCF:56:1,2017-03-09T00:00:00Z,26.4645,-82.1044,1.607,11.5,1111122 
SCCF RECON,ioos:station:SCCF:56:1,2017-03-09T01:00:00Z,26.4645,-82.1044,1.697,11.36,1111122 
SCCF RECON,ioos:station:SCCF:56:1,2017-03-09T02:00:00Z,26.4645,-82.1044,1.789,9.55,1111122 
SCCF RECON,ioos:station:SCCF:56:1,2017-03-09T03:00:00Z,26.4645,-82.1044,1.835,9.35,1111122 
SCCF RECON,ioos:station:SCCF:56:1,2017-03-09T04:00:00Z,26.4645,-82.1044,1.834,9.08,1111122 
SCCF RECON,ioos:station:SCCF:56:1,2017-03-09T05:00:00Z,26.4645,-82.1044,1.759,8.99,1111122 
SCCF RECON,ioos:station:SCCF:56:1,2017-03-09T06:00:00Z,26.4645,-82.1044,1.639,8.46,1111122 
SCCF RECON,ioos:station:SCCF:56:1,2017-03-09T07:00:00Z,26.4645,-82.1044,1.49,7.67,1111122 
SCCF RECON,ioos:station:SCCF:56:1,2017-03-09T08:00:00Z,26.4645,-82.1044,1.349,6.61,1111122 
SCCF RECON,ioos:station:SCCF:56:1,2017-03-09T09:00:00Z,26.4645,-82.1044,1.216,5.78,1111122 
SCCF RECON,ioos:station:SCCF:56:1,2017-03-09T10:00:00Z,26.4645,-82.1044,1.12,5.07,1111122 
SCCF RECON,ioos:station:SCCF:56:1,2017-03-09T11:00:00Z,26.4645,-82.1044,1.073,4.16,1111122 
SCCF RECON,ioos:station:SCCF:56:1,2017-03-09T12:00:00Z,26.4645,-82.1044,1.13,4.26,1111122 
SCCF RECON,ioos:station:SCCF:56:1,2017-03-09T13:00:00Z,26.4645,-82.1044,1.3,5.36,1111122 
SCCF RECON,ioos:station:SCCF:56:1,2017-03-09T14:00:00Z,26.4645,-82.1044,1.432,6.59,1111122 
SCCF RECON,ioos:station:SCCF:56:1,2017-03-09T15:00:00Z,26.4645,-82.1044,1.529,6.89,1111122 
SCCF RECON,ioos:station:SCCF:56:1,2017-03-09T16:00:00Z,26.4645,-82.1044,1.618,8.8,1111122 
SCCF RECON,ioos:station:SCCF:56:1,2017-03-09T17:00:00Z,26.4645,-82.1044,1.65,9.13,1111122 
SCCF RECON,ioos:station:SCCF:56:1,2017-03-09T18:00:00Z,26.4645,-82.1044,1.611,8.67,1111122 
SCCF RECON,ioos:station:SCCF:56:1,2017-03-09T19:00:00Z,26.4645,-82.1044,1.52,9.39,1111122 
SCCF RECON,ioos:station:SCCF:56:1,2017-03-09T20:00:00Z,26.4645,-82.1044,1.421,8.36,1111122 
SCCF RECON,ioos:station:SCCF:56:1,2017-03-09T21:00:00Z,26.4645,-82.1044,1.342,8.81,1111122 
SCCF RECON,ioos:station:SCCF:56:1,2017-03-09T22:00:00Z,26.4645,-82.1044,1.301,8.5,1111122 
SCCF RECON,ioos:station:SCCF:56:1,2017-03-09T23:00:00Z,26.4645,-82.1044,1.33,8.83,1111122 
SCCF RECON,ioos:station:SCCF:56:1,2017-03-10T00:00:00Z,26.4645,-82.1044,1.449,11.22,1111122 
SCCF RECON,ioos:station:SCCF:56:1,2017-03-10T01:00:00Z,26.4645,-82.1044,1.56,10.36,1111122 
SCCF RECON,ioos:station:SCCF:56:1,2017-03-10T02:00:00Z,26.4645,-82.1044,1.68,8.5,1111122 
SCCF RECON,ioos:station:SCCF:56:1,2017-03-10T03:00:00Z,26.4645,-82.1044,1.745,8.67,1111122 
SCCF RECON,ioos:station:SCCF:56:1,2017-03-10T04:00:00Z,26.4645,-82.1044,1.799,8.45,1111122 
SCCF RECON,ioos:station:SCCF:56:1,2017-03-10T05:00:00Z,26.4645,-82.1044,1.8,7.96,1111122 
SCCF RECON,ioos:station:SCCF:56:1,2017-03-10T06:00:00Z,26.4645,-82.1044,1.719,7.87,1111122 
SCCF RECON,ioos:station:SCCF:56:1,2017-03-10T07:00:00Z,26.4645,-82.1044,1.56,7.29,1111122 
SCCF RECON,ioos:station:SCCF:56:1,2017-03-10T08:00:00Z,26.4645,-82.1044,1.417,6.77,1111122 
SCCF RECON,ioos:station:SCCF:56:1,2017-03-10T09:00:00Z,26.4645,-82.1044,1.28,6.22,1111122 
SCCF RECON,ioos:station:SCCF:56:1,2017-03-10T10:00:00Z,26.4645,-82.1044,1.157,5.56,1111122 
SCCF RECON,ioos:station:SCCF:56:1,2017-03-10T11:00:00Z,26.4645,-82.1044,1.06,4.53,1111122 
SCCF RECON,ioos:station:SCCF:56:1,2017-03-10T12:00:00Z,26.4645,-82.1044,1.06,3.88,1111122 
SCCF RECON,ioos:station:SCCF:56:1,2017-03-10T13:00:00Z,26.4645,-82.1044,1.21,4.53,1111122 
SCCF RECON,ioos:station:SCCF:56:1,2017-03-10T14:00:00Z,26.4645,-82.1044,1.393,4.15,1111122 
SCCF RECON,ioos:station:SCCF:56:1,2017-03-10T15:00:00Z,26.4645,-82.1044,1.52,6.67,1111122 
SCCF RECON,ioos:station:SCCF:56:1,2017-03-10T16:00:00Z,26.4645,-82.1044,1.63,7.85,1111122 
SCCF RECON,ioos:station:SCCF:56:1,2017-03-10T17:00:00Z,26.4645,-82.1044,1.7,8.24,1111122 
SCCF RECON,ioos:station:SCCF:56:1,2017-03-10T18:00:00Z,26.4645,-82.1044,1.68,8.12,1111122 
SCCF RECON,ioos:station:SCCF:56:1,2017-03-10T19:00:00Z,26.4645,-82.1044,1.59,8.22,1111122 
SCCF RECON,ioos:station:SCCF:56:1,2017-03-10T20:00:00Z,26.4645,-82.1044,1.47,8.02,1111122 
SCCF RECON,ioos:station:SCCF:56:1,2017-03-10T21:00:00Z,26.4645,-82.1044,1.382,8.19,1111122 
SCCF RECON,ioos:station:SCCF:56:1,2017-03-10T22:00:00Z,26.4645,-82.1044,1.321,8.28,1111122 
SCCF RECON,ioos:station:SCCF:56:1,2017-03-10T23:00:00Z,26.4645,-82.1044,1.259,8.25,1111122 
SCCF RECON,ioos:station:SCCF:56:1,2017-03-11T00:00:00Z,26.4645,-82.1044,1.247,7.94,1111122 
SCCF RECON,ioos:station:SCCF:56:1,2017-03-11T01:00:00Z,26.4645,-82.1044,1.338,9.12,1111122 
SCCF RECON,ioos:station:SCCF:56:1,2017-03-11T02:00:00Z,26.4645,-82.1044,1.5,7.3,1111122 
SCCF RECON,ioos:station:SCCF:56:1,2017-03-11T03:00:00Z,26.4645,-82.1044,1.66,6.9,1111122 
SCCF RECON,ioos:station:SCCF:56:1,2017-03-11T04:00:00Z,26.4645,-82.1044,1.768,6.82,1111122 
SCCF RECON,ioos:station:SCCF:56:1,2017-03-11T05:00:00Z,26.4645,-82.1044,1.82,7.21,1111122 
SCCF RECON,ioos:station:SCCF:56:1,2017-03-11T06:00:00Z,26.4645,-82.1044,1.788,7.07,1111122 
SCCF RECON,ioos:station:SCCF:56:1,2017-03-11T07:00:00Z,26.4645,-82.1044,1.65,6.94,1111122 
SCCF RECON,ioos:station:SCCF:56:1,2017-03-11T08:00:00Z,26.4645,-82.1044,1.48,6.29,1111122 
SCCF RECON,ioos:station:SCCF:56:1,2017-03-11T09:00:00Z,26.4645,-82.1044,1.36,5.53,1111122 
SCCF RECON,ioos:station:SCCF:56:1,2017-03-11T10:00:00Z,26.4645,-82.1044,1.228,5.12,1111122 
SCCF RECON,ioos:station:SCCF:56:1,2017-03-11T11:00:00Z,26.4645,-82.1044,1.117,4.49,1111122 
SCCF RECON,ioos:station:SCCF:56:1,2017-03-11T12:00:00Z,26.4645,-82.1044,1.031,3.92,1111122 
SCCF RECON,ioos:station:SCCF:56:1,2017-03-11T13:00:00Z,26.4645,-82.1044,1.051,3.54,1111122 
SCCF RECON,ioos:station:SCCF:56:1,2017-03-11T14:00:00Z,26.4645,-82.1044,1.195,6.51,1111122 
SCCF RECON,ioos:station:SCCF:56:1,2017-03-11T15:00:00Z,26.4645,-82.1044,1.359,7.58,1111122 
SCCF RECON,ioos:station:SCCF:56:1,2017-03-11T16:00:00Z,26.4645,-82.1044,1.49,8.37,1111122 
SCCF RECON,ioos:station:SCCF:56:1,2017-03-11T17:00:00Z,26.4645,-82.1044,1.57,8.34,1111122 
SCCF RECON,ioos:station:SCCF:56:1,2017-03-11T18:00:00Z,26.4645,-82.1044,1.63,8.32,1111122 
SCCF RECON,ioos:station:SCCF:56:1,2017-03-11T19:00:00Z,26.4645,-82.1044,1.63,8.95,1111122 
SCCF RECON,ioos:station:SCCF:56:1,2017-03-11T20:00:00Z,26.4645,-82.1044,1.519,8.49,1111122 